Location: Barcelona
(41.3830°N, 2.1830°E)
Time: 18:25:29
(UTC+01:00)

ISS - Pass Details

Date: 20 January 2020
Orbit: 415 x 422 km, 51.6° (Epoch: 23 January)

Event Time Altitude Azimuth Distance (km) Brightness Sun altitude
Rises 19:54:29 0° 233° (SW) 2,359 1.0 -22.7°
Reaches altitude 10° 19:56:35 10° 234° (SW) 1,497 -0.1 -23.1°
Enters shadow 19:58:54 42° 235° (SW) 612 -2.6 -23.6°
